Weather History for KPEO - April, 2013

Change the Weather History Date:

Monday, April 1, 2013

  Actual Average Record
Temperature  
Mean Temperature 34 °F -  
Max Temperature 42 °F - - ()
Min Temperature 26 °F - - ()
Degree Days  
Heating Degree Days 31    
Moisture  
Dew Point 27 °F    
Average Humidity 78    
Maximum Humidity 93    
Minimum Humidity 42    
Precipitation  
Precipitation 0.04 in - - ()
Sea Level Pressure  
Sea Level Pressure 29.78 in    
Wind  
Wind Speed 10 mph (West)    
Max Wind Speed 25 mph    
Max Gust Speed 34 mph    
Visibility 6 miles    
Events Fog , Rain , Snow    
T = Trace of Precipitation, MM = Missing Value Source: NWS Daily Summary

Daily Weather History Graph

Daily Weather History Graph

Search for Another Location

Airport or City:

Trip Planner

Search our weather history database for the weather conditions in past years. The results will help you decide how hot, cold, wet, or windy it might be!

Date:

Astronomy

Apr. 01, 2013 Rise Set
Actual Time 6:50 AM EDT 7:34 PM EDT
Civil Twilight 6:21 AM EDT 8:03 PM EDT
Nautical Twilight 5:47 AM EDT 8:36 PM EDT
Astronomical Twilight 5:12 AM EDT 9:12 PM EDT
Moon 12:46 AM EDT (4/1) 10:28 AM EDT (4/1)
Length of Visible Light 13h 41m
Length of Day
12h 44m
Waning Gibbous, 67% of the Moon is Illuminated
Apr 1
Waning Gibbous
Apr 3
Last Quarter
Apr 10
New
Apr 18
First Quarter
Apr 25
Full

Hourly Weather History & Observations

Time (EDT) Temp. Windchill Dew Point Humidity Pressure Visibility Wind Dir Wind Speed Gust Speed Precip Events Conditions
12:53 AM 39.9 °F 35.1 °F 37.9 °F 93% 29.63 in 10.0 mi South 6.9 mph - N/A   Clear
1:53 AM 39.9 °F 35.8 °F 37.0 °F 89% 29.60 in 10.0 mi SSW 5.8 mph - N/A   Clear
2:53 AM 41.0 °F 34.3 °F 37.9 °F 89% 29.60 in 10.0 mi SSW 11.5 mph - N/A   Clear
3:53 AM 41.0 °F 34.7 °F 37.9 °F 89% 29.60 in 10.0 mi SSW 10.4 mph - N/A   Overcast
4:53 AM 39.9 °F 35.1 °F 37.9 °F 93% 29.60 in 8.0 mi SW 6.9 mph - 0.00 in Rain Light Rain
5:29 AM 41.0 °F 38.0 °F 37.4 °F 87% 29.58 in 9.0 mi SSW 4.6 mph - 0.01 in   Overcast
5:53 AM 41.0 °F 38.0 °F 37.9 °F 89% 29.60 in 9.0 mi SSW 4.6 mph - 0.01 in   Overcast
6:14 AM 41.0 °F 35.8 °F 37.4 °F 87% 29.58 in 9.0 mi South 8.1 mph - 0.00 in Rain Light Rain
6:38 AM 41.0 °F 39.0 °F 37.4 °F 87% 29.59 in 7.0 mi SW 3.5 mph - 0.00 in Rain Light Rain
6:50 AM 41.0 °F 38.0 °F 37.4 °F 87% 29.60 in 8.0 mi SSW 4.6 mph - 0.00 in Rain Light Rain
6:53 AM 41.0 °F 36.4 °F 37.9 °F 89% 29.62 in 9.0 mi SSW 6.9 mph - 0.00 in Rain Light Rain
7:29 AM 42.8 °F 38.0 °F 37.4 °F 81% 29.61 in 10.0 mi West 8.1 mph - 0.01 in   Overcast
7:53 AM 42.1 °F 34.9 °F 35.1 °F 76% 29.64 in 10.0 mi West 13.8 mph 18.4 mph 0.01 in   Overcast
8:53 AM 41.0 °F 35.2 °F 34.0 °F 76% 29.66 in 10.0 mi West 9.2 mph - 0.00 in   Overcast
9:18 AM 37.4 °F 28.9 °F 32.0 °F 81% 29.66 in 4.0 mi NW 13.8 mph 24.2 mph 0.01 in Rain Light Rain
9:33 AM 35.6 °F 27.1 °F 30.2 °F 81% 29.67 in 2.0 mi WNW 12.7 mph 28.8 mph 0.01 in Snow Light Snow
9:38 AM 35.6 °F 26.2 °F 30.2 °F 81% 29.67 in 3.0 mi WNW 15.0 mph 23.0 mph 0.01 in Snow Light Snow
9:40 AM 35.6 °F 25.9 °F 30.2 °F 81% 29.67 in 2.5 mi NW 16.1 mph 25.3 mph 0.01 in Snow Light Snow
9:48 AM 33.8 °F 25.3 °F 30.2 °F 87% 29.68 in 1.8 mi WNW 11.5 mph 27.6 mph 0.01 in Snow Light Snow
9:49 AM 34.0 °F 26.0 °F 30.0 °F 85% 29.70 in 1.8 mi WNW 10.4 mph 27.6 mph 0.01 in Snow Light Snow
9:55 AM 33.8 °F 24.3 °F 28.4 °F 81% 29.68 in 2.5 mi WNW 13.8 mph 25.3 mph 0.00 in Snow Light Snow
10:03 AM 33.8 °F 24.3 °F 28.4 °F 81% 29.69 in 3.0 mi WNW 13.8 mph 24.2 mph 0.00 in Snow Light Snow
10:27 AM 35.6 °F 28.0 °F 26.6 °F 70% 29.70 in 10.0 mi West 10.4 mph 25.3 mph 0.00 in   Overcast
10:53 AM 35.1 °F 28.6 °F 27.0 °F 72% 29.74 in 10.0 mi West 8.1 mph 17.3 mph 0.00 in   Overcast
11:28 AM 35.6 °F 26.6 °F 26.6 °F 70% 29.73 in 10.0 mi West 13.8 mph 21.9 mph 0.00 in   Overcast
11:53 AM 37.0 °F 29.8 °F 26.1 °F 65% 29.77 in 10.0 mi West 10.4 mph 17.3 mph 0.00 in   Overcast
12:53 PM 37.0 °F 27.4 °F 21.0 °F 52% 29.78 in 10.0 mi West 17.3 mph 31.1 mph N/A   Mostly Cloudy
1:53 PM 35.1 °F 22.7 °F 14.0 °F 42% 29.81 in 10.0 mi West 25.3 mph 34.5 mph N/A   Mostly Cloudy
3:53 PM 37.0 °F 27.7 °F 16.0 °F 42% 29.84 in 10.0 mi West 16.1 mph 23.0 mph N/A   Mostly Cloudy
4:53 PM 34.0 °F 24.6 °F 18.0 °F 52% 29.88 in 9.0 mi West 13.8 mph 23.0 mph 0.00 in Snow Light Snow
5:53 PM 33.1 °F 23.9 °F 15.1 °F 48% 29.89 in 10.0 mi WNW 12.7 mph 24.2 mph 0.00 in   Overcast
6:53 PM 30.9 °F 21.7 °F 19.0 °F 61% 29.92 in 10.0 mi West 11.5 mph 19.6 mph 0.00 in   Mostly Cloudy
7:53 PM 28.9 °F 18.6 °F 21.0 °F 72% 29.93 in 3.0 mi West 12.7 mph 27.6 mph 0.00 in Snow Light Snow
8:28 PM 28.4 °F 20.4 °F 21.2 °F 74% 29.91 in 4.0 mi West 8.1 mph 16.1 mph 0.00 in Snow Light Snow
8:38 PM 28.4 °F 19.1 °F 21.2 °F 74% 29.91 in 9.0 mi West 10.4 mph - 0.00 in   Scattered Clouds
8:53 PM 28.9 °F 21.1 °F 21.0 °F 72% 29.94 in 10.0 mi West 8.1 mph - 0.00 in   Scattered Clouds
9:08 PM 28.4 °F 17.5 °F 21.2 °F 74% 29.92 in 1.5 mi NW 13.8 mph 20.7 mph 0.00 in Snow Light Snow
9:10 PM 26.6 °F 14.3 °F 21.2 °F 80% 29.92 in 0.8 mi NW 16.1 mph 21.9 mph 0.00 in Snow Light Snow
9:15 PM 26.6 °F 17.5 °F 23.0 °F 86% 29.92 in 0.2 mi WNW 9.2 mph 21.9 mph 0.00 in Fog , Snow Heavy Snow
9:29 PM 26.6 °F 18.2 °F 24.8 °F 93% 29.93 in 0.5 mi West 8.1 mph - 0.01 in Fog , Snow Snow
9:44 PM 26.6 °F 19.1 °F 23.0 °F 86% 29.92 in 2.0 mi WSW 6.9 mph 16.1 mph 0.01 in Snow Light Snow
9:50 PM 26.6 °F 18.2 °F 23.0 °F 86% 29.92 in 9.0 mi WSW 8.1 mph - 0.01 in Snow Light Snow
10:16 PM 26.6 °F 19.1 °F 21.2 °F 80% 29.92 in 2.0 mi NW 6.9 mph - 0.00 in Snow Light Snow
10:23 PM 26.6 °F 18.2 °F 23.0 °F 86% 29.92 in 1.0 mi NW 8.1 mph - 0.00 in Snow Light Snow
10:25 PM 26.6 °F 18.2 °F 23.0 °F 86% 29.93 in 0.8 mi NW 8.1 mph - 0.00 in Snow Light Snow
10:35 PM 26.6 °F 19.1 °F 23.0 °F 86% 29.93 in 1.0 mi WNW 6.9 mph - 0.01 in Snow Light Snow
10:39 PM 26.6 °F 15.7 °F 23.0 °F 86% 29.93 in 2.0 mi West 12.7 mph 21.9 mph 0.01 in Snow Light Snow
10:53 PM 26.1 °F 15.0 °F 21.0 °F 81% 29.95 in 1.2 mi West 12.7 mph 23.0 mph 0.01 in Snow Light Snow
10:59 PM 26.6 °F 15.2 °F 19.4 °F 74% 29.92 in 2.5 mi West 13.8 mph 19.6 mph 0.00 in Snow Light Snow
11:04 PM 26.6 °F 15.7 °F 19.4 °F 74% 29.92 in 4.0 mi West 12.7 mph - 0.00 in Snow Light Snow
11:53 PM 27.0 °F 16.1 °F 17.1 °F 66% 29.95 in 10.0 mi West 12.7 mph 18.4 mph 0.00 in   Mostly Cloudy